Location: S�tio Afonso Gruber
(26.1760°S, 49.5250°W)
Time: 23:50:09
(UTC+00:00)

Intelsat 5-3 Rocket - Pass Details

Date: 04 October 2020
Orbit: 281 x 6111 km, 23.6° (Epoch: 22 October)

Event Time Altitude Azimuth Distance (km) Brightness Sun altitude
Rises 22:19:44 0° 340° (NNW) 2,632 5.9 -14.1°
Reaches altitude 10° 22:22:09 10° 4° (N) 2,158 5.2 -14.6°
Maximum altitude 22:25:25 17° 45° (NE) 2,312 5.0 -15.4°
Enters shadow 22:25:39 17° 47° (NE) 2,353 5.0 -15.4°
